Date String (YYYY-MM-DD hh:mm:ss) UTC,Instrument flags,Ambient pressure (hPa),Sample flow (lpm),Bypass flow (lpm),Sample temperature (°C),Ambient temperature (°C),ASC tube jacket temperature (°C),LED temperature (°C),Box temperature (°C),Sample RH (%),Span deviation,Mass concentration (μg/m³),Mass concentration (μg/m³),Mass concentration (μg/m³)
DateTimeUTC,F1_M11,P_M11,Q1_M11,Q2_M11,T1_M11,T2_M11,T3_M11,T4_M11,T5_M11,U1_M11,ZSPAN_M11,X0_M11,X2_M11,X1_M11
2023-04-25 13:00:00,,0823.0,5.00,0.00,25.3,23.7,00.0,33.7,26.9,21.2,0000.0,0005.85,0003.46,0002.97
2023-04-25 13:01:00,,0823.0,4.99,0.00,25.3,23.7,00.0,33.7,26.9,21.1,0000.0,0005.95,0003.45,0002.96
2023-04-25 13:02:00,,0823.0,4.99,0.00,25.3,23.8,00.0,33.7,26.9,21.1,0000.0,0005.96,0003.44,0002.93
2023-04-25 13:03:00,,0823.0,5.00,0.00,25.3,23.8,00.0,33.7,26.9,21.1,0000.0,0005.96,0003.43,0002.91
2023-04-25 13:04:00,,0823.0,5.00,0.00,25.3,23.8,00.0,33.7,26.9,21.1,0000.0,0005.92,0003.40,0002.87
2023-04-25 13:05:00,,0823.0,5.00,0.00,25.3,23.8,00.0,33.7,26.9,21.2,0000.0,0006.03,0003.42,0002.85
2023-04-25 13:06:00,,0823.0,5.00,0.00,25.3,23.8,00.0,33.7,26.9,21.3,0000.0,0006.01,0003.42,0002.84
2023-04-25 13:07:00,,0822.9,5.01,0.00,25.3,23.8,00.0,33.7,26.9,21.4,0000.0,0005.84,0003.40,0002.84
2023-04-25 13:08:00,,0822.9,5.01,0.00,25.3,23.8,00.0,33.7,26.9,21.4,0000.0,0005.83,0003.41,0002.86
2023-04-25 13:09:00,,0823.0,5.00,0.00,25.3,23.8,00.0,33.7,26.9,21.4,0000.0,0005.78,0003.42,0002.87
2023-04-25 13:10:00,,0823.0,5.00,0.00,25.3,23.8,00.0,33.7,26.9,21.5,0000.0,0005.50,0003.44,0002.86
2023-04-25 13:11:00,,0823.0,5.00,0.00,25.3,23.8,00.0,33.7,26.9,21.6,0000.0,0005.50,0003.43,0002.86
2023-04-25 13:12:00,,0823.0,5.00,0.00,25.3,23.7,00.0,33.7,26.9,21.3,0000.0,0005.49,0003.45,0002.86
2023-04-25 13:13:00,,0823.1,5.00,0.00,25.3,23.7,00.0,33.7,26.9,21.3,0000.0,0005.41,0003.46,0002.87
2023-04-25 13:14:00,,0823.1,5.00,0.00,25.3,23.7,00.0,33.7,26.9,21.6,0000.0,0005.37,0003.44,0002.85
2023-04-25 13:15:00,,0823.1,4.99,0.00,25.3,23.7,00.0,33.7,27.0,21.4,0000.0,0005.39,0003.42,0002.84
2023-04-25 13:16:00,,0823.2,5.01,0.00,25.3,23.7,00.0,33.7,26.9,21.5,0000.0,0005.29,0003.38,0002.81
2023-04-25 13:17:00,,0823.3,5.01,0.00,25.3,23.7,00.0,33.7,26.9,21.7,0000.0,0005.29,0003.36,0002.78
2023-04-25 13:18:00,,0823.3,5.00,0.00,25.3,23.8,00.0,33.7,27.0,21.9,0000.0,0005.29,0003.34,0002.73
2023-04-25 13:19:00,,0823.3,4.99,0.00,25.3,23.7,00.0,33.7,27.0,22.3,0000.0,0005.30,0003.32,0002.68
2023-04-25 13:20:00,,0823.4,5.00,0.00,25.3,23.7,00.0,33.7,26.9,22.4,0000.0,0005.14,0003.29,0002.63
2023-04-25 13:21:00,,0823.4,5.00,0.00,25.3,23.7,00.0,33.7,26.9,22.5,0000.0,0004.96,0003.26,0002.61
2023-04-25 13:22:00,,0823.4,5.00,0.00,25.3,23.8,00.0,33.7,26.9,22.6,0000.0,0004.92,0003.25,0002.59
2023-04-25 13:23:00,,0823.4,5.01,0.00,25.3,23.8,00.0,33.7,26.9,23.0,0000.0,0004.80,0003.22,0002.57
2023-04-25 13:24:00,,0823.5,5.00,0.00,25.3,23.8,00.0,33.7,26.9,23.7,0000.0,0004.83,0003.23,0002.62
2023-04-25 13:25:00,,0823.4,5.00,0.00,25.4,23.8,00.0,33.7,27.0,22.9,0000.0,0004.99,0003.26,0002.67
2023-04-25 13:26:00,,0823.4,5.00,0.00,25.4,23.8,00.0,33.7,27.0,22.8,0000.0,0004.95,0003.27,0002.70
2023-04-25 13:27:00,,0823.4,5.00,0.00,25.4,23.8,00.0,33.7,26.9,23.0,0000.0,0004.95,0003.30,0002.77
2023-04-25 13:28:00,,0823.3,5.01,0.00,25.4,23.8,00.0,33.7,26.9,23.0,0000.0,0004.93,0003.32,0002.86
2023-04-25 13:29:00,,0823.3,5.00,0.00,25.4,23.9,00.0,33.7,26.9,23.3,0000.0,0005.00,0003.37,0002.95
2023-04-25 13:30:00,,0823.3,4.99,0.00,25.4,23.9,00.0,33.7,26.9,22.2,0000.0,0004.99,0003.39,0003.00
2023-04-25 13:31:00,,0823.3,5.00,0.00,25.4,23.9,00.0,33.7,26.9,22.3,0000.0,0005.00,0003.41,0003.05
2023-04-25 13:32:00,,0823.3,4.99,0.00,25.4,23.9,00.0,33.7,27.0,22.7,0000.0,0005.06,0003.44,0003.10
2023-04-25 13:33:00,,0823.3,5.00,0.00,25.4,23.9,00.0,33.7,27.0,23.0,0000.0,0005.25,0003.50,0003.15
2023-04-25 13:34:00,,0823.3,5.00,0.00,25.4,23.9,00.0,33.7,27.0,23.2,0000.0,0005.30,0003.52,0003.19
2023-04-25 13:35:00,,0823.3,5.01,0.00,25.4,23.9,00.0,33.7,26.9,23.1,0000.0,0005.37,0003.52,0003.21
2023-04-25 13:36:00,,0823.3,5.00,0.00,25.4,23.9,00.0,33.7,27.0,23.2,0000.0,0005.41,0003.55,0003.22
2023-04-25 13:37:00,,0823.2,5.02,0.00,25.4,23.9,00.0,33.8,27.0,23.5,0000.0,0005.39,0003.57,0003.24
2023-04-25 13:38:00,,0823.3,5.00,0.00,25.5,23.9,00.0,33.8,27.0,23.4,0000.0,0005.93,0003.61,0003.25
2023-04-25 13:39:00,,0823.3,5.00,0.00,25.5,23.9,00.0,33.8,27.0,23.3,0000.0,0006.17,0003.65,0003.26
2023-04-25 13:40:00,,0823.3,5.00,0.00,25.5,23.9,00.0,33.8,27.0,23.4,0000.0,0006.29,0003.68,0003.28
2023-04-25 13:41:00,,0823.3,5.00,0.00,25.5,23.9,00.0,33.8,27.0,23.4,0000.0,0006.36,0003.70,0003.28
2023-04-25 13:42:00,,0823.3,5.00,0.00,25.5,23.9,00.0,33.8,27.0,23.0,0000.0,0006.49,0003.74,0003.31
2023-04-25 13:43:00,,0823.3,5.01,0.00,25.5,23.9,00.0,33.8,27.0,23.2,0000.0,0006.78,0003.80,0003.34
2023-04-25 13:44:00,,0823.3,5.01,0.00,25.5,24.0,00.0,33.8,27.1,23.6,0000.0,0006.74,0003.78,0003.34
2023-04-25 13:45:00,,0823.4,4.98,0.00,25.5,24.0,00.0,33.8,27.0,23.4,0000.0,0006.78,0003.78,0003.34
2023-04-25 13:46:00,,0823.4,5.01,0.00,25.5,24.0,00.0,33.8,27.0,23.0,0000.0,0007.22,0003.80,0003.34
2023-04-25 13:47:00,,0823.4,5.01,0.00,25.5,24.0,00.0,33.8,27.1,23.0,0000.0,0007.37,0003.84,0003.33
2023-04-25 13:48:00,,0823.4,4.99,0.00,25.5,24.0,00.0,33.8,27.1,22.8,0000.0,0007.74,0003.82,0003.32
2023-04-25 13:49:00,,0823.4,4.99,0.00,25.5,24.0,00.0,33.8,27.0,23.1,0000.0,0008.63,0003.80,0003.31
2023-04-25 13:50:00,,0823.4,4.99,0.00,25.5,24.0,00.0,33.8,27.0,23.0,0000.0,0008.47,0003.78,0003.31
2023-04-25 13:51:00,,0823.4,5.00,0.00,25.5,24.0,00.0,33.8,27.1,23.0,0000.0,0008.49,0003.75,0003.29
2023-04-25 13:52:00,,0823.4,5.00,0.00,25.5,24.0,00.0,33.8,27.0,22.9,0000.0,0008.51,0003.73,0003.28
2023-04-25 13:53:00,,0823.4,5.00,0.00,25.5,24.0,00.0,33.9,27.0,23.1,0000.0,0008.61,0003.74,0003.27
2023-04-25 13:54:00,,0823.4,5.00,0.00,25.5,24.0,00.0,33.9,27.1,23.0,0000.0,0008.67,0003.75,0003.26
2023-04-25 13:55:00,,0823.4,5.00,0.00,25.6,24.0,00.0,33.9,27.1,22.7,0000.0,0008.79,0003.79,0003.26
2023-04-25 13:56:00,,0823.4,5.01,0.00,25.6,24.0,00.0,33.9,27.1,22.9,0000.0,0008.72,0003.79,0003.26
2023-04-25 13:57:00,,0823.4,5.00,0.00,25.6,24.0,00.0,33.9,27.1,23.1,0000.0,0008.56,0003.79,0003.27
2023-04-25 13:58:00,,0823.4,5.00,0.00,25.6,24.0,00.0,33.9,27.1,22.9,0000.0,0008.50,0003.78,0003.27
2023-04-25 13:59:00,,0823.3,5.00,0.00,25.6,24.0,00.0,33.9,27.2,22.8,0000.0,0008.03,0003.81,0003.29
